Voltar ao catálogo

BREEZE-M DEB

LostHEO
NORAD 34262·DEBRIS·🇷🇺 Russia

Lançado Feb 28, 2006 de Baikonur Cosmodrome

Loading…

Próximas Passagens (próximas 24 horas)

TLE

ObsoletoSource: Space-Track

Época: Aug 10, 2018, 06:15 UTC

1 34262U 06006CD  18222.26108775 -.00000101  00000-0 -22660-3 0  9993
2 34262  51.8102 187.1638 5029489 171.8173 201.3942  5.21203520191052

Acompanhe BREEZE-M DEB em tempo real com AllMySat

Download on the App Store